Regional Weather Roundup
Issued by NWS

Home | Current Version | Previous Version | Text Only | Print | Product List | Glossary On
Versions: 1 2 3 4 5 6 7 8 9 10 11 12 13 14 15 16 17 18 19 20 21 22 23 24 25 26 27 28 29 30 31 32 33 34 35 36 37 38 39 40 41 42 43 44 45 46 47 48 49 50
275
ASUS43 KLSX 091010
RWRMO

WEATHER SUMMARY FOR MISSOURI
NATIONAL WEATHER SERVICE SPRINGFIELD MO
400 AM CST TUE FEB 09 2016

NOTE: "FAIR" INDICATES FEW OR NO CLOUDS BELOW 12,000 FEET WITH NO
       SIGNIFICANT WEATHER AND/OR OBSTRUCTIONS TO VISIBILITY.
       CURRENT SKY AND/OR WEATHER CONDITIONS ARE NOT AVAILABLE FOR
       CHILLICOTHE AND FARMINGTON.

MOZ001>031-035>038-043-044-053-054-091100-
...NORTHERN AND WESTERN MISSOURI...

CITY           SKY/WX    TMP DP  RH WIND       PRES   REMARKS
KANSAS CTY INT CLEAR     24   8  50 N21G31    30.02S WCI   9
KANSAS C DTWN  CLEAR     27   9  46 NW20G31   30.03S WCI  13
LEE`S SUMMIT   CLEAR     25   8  48 NW23G37   30.02S WCI  10
ST JOSEPH      CLEAR     22  11  62 N13       30.07R WCI  10
CHILLICOTHE      N/A     19   8  62 N12G21    30.03R WCI   7
KIRKSVILLE     FLURRIES  16   6  65 NW12      29.96R WCI   3

$$
MOZ066>068-077>081-088>096-101>105-091100-
...SOUTHWEST MISSOURI...

CITY           SKY/WX    TMP DP  RH WIND       PRES   REMARKS
SPRINGFIELD    CLEAR     27  14  58 NW15G23   29.97F WCI  15
JOPLIN         CLEAR     29  19  66 W12       30.05F WCI  19

$$
MOZ032>034-039>042-045>050-055>058-069>072-091100-
...CENTRAL MISSOURI...

CITY           SKY/WX    TMP DP  RH WIND       PRES   REMARKS
COLUMBIA       CLOUDY    20   9  62 NW23G30   29.93S WCI   3
JEFFERSON CITY PTCLDY    21  10  62 NW13      29.97R WCI   9
ROLLA          CLOUDY    20  12  71 NW17      29.89S WCI   5
SEDALIA        PTCLDY    22  11  62 NW22      30.00R WCI   6
WHITEMAN AFB   CLEAR     21  14  72 NW13      29.99S WCI   9
WARRENSBURG    CLEAR     23  16  74 NW10G17   30.02R WCI  12
OSAGE BEACH    MOCLDY    23  10  58 W14G22    29.95S WCI  11

$$
MOZ051-052-059>065-091100-
...EAST CENTRAL MISSOURI...

CITY           SKY/WX    TMP DP  RH WIND       PRES   REMARKS
ST LOUIS INTL  FLURRIES  21  14  74 NW13      29.90S WCI   9
SPIRIT OF STL  LGT SNOW  21  15  78 NW8       29.91S WCI  11
ST CHARLES     LGT SNOW  20  13  74 NW16      29.91S WCI   6

$$
MOZ072>076-082>087-097>100-106>115-091100-
...SOUTH CENTRAL AND SOUTHEAST MISSOURI...

CITY           SKY/WX    TMP DP  RH WIND       PRES   REMARKS
CAPE GIRARDEAU FLURRIES  23  14  68 NW16      29.92S WCI  10
FARMINGTON     LGT SNOW  20  16  84 NW5       29.88S FOG     WCI  13
POPLAR BLUFF   CLOUDY    28  17  63 NW9       29.92S WCI  19
WEST PLAINS    PTCLDY    25  11  55 NW13G22   29.91F WCI  14

$$




USA.gov is the U.S. government's official web portal to all federal, state and local government web resources and services.